Voltar ao catálogo

FENGYUN 1C DEB

AtivoPO
NORAD 30914·DEBRIS·🇨🇳 China

Lançado May 10, 1999 de Taiyuan Satellite Launch Center

Loading…

Próximas Passagens (próximas 24 horas)

TLE

AtualizadoSource: Space-Track

Época: Sep 13, 2026, 21:24 UTC

1 30914U 99025AZC 26256.89173680  .00001838  00000-0  28726-2 0  9992
2 30914  99.9840 128.5866 0507809  81.1003 284.7226 13.09606128626760

Acompanhe FENGYUN 1C DEB em tempo real com AllMySat

Download on the App Store